Year,Month,Day,Hour,Minute,Value (Times are PST for temperature in C)
2019,03,19,00,00,13.30
2019,03,19,00,01,13.30
2019,03,19,00,02,13.30
2019,03,19,00,03,13.30
2019,03,19,00,04,13.30
2019,03,19,00,05,13.30
2019,03,19,00,06,13.30
2019,03,19,00,07,13.30
2019,03,19,00,08,13.30
2019,03,19,00,09,13.30
2019,03,19,00,10,13.30
2019,03,19,00,11,13.30
2019,03,19,00,12,13.30
2019,03,19,00,13,13.20
2019,03,19,00,14,13.20
2019,03,19,00,15,13.20
2019,03,19,00,16,13.20
2019,03,19,00,17,13.20
2019,03,19,00,18,13.20
2019,03,19,00,19,13.20
2019,03,19,00,20,13.20
2019,03,19,00,21,13.10
2019,03,19,00,22,13.10
2019,03,19,00,23,13.10
2019,03,19,00,24,13.10
2019,03,19,00,25,13.10
2019,03,19,00,26,13.00
2019,03,19,00,27,13.00
2019,03,19,00,28,13.00
2019,03,19,00,29,12.90
2019,03,19,00,30,12.90
2019,03,19,00,31,12.90
2019,03,19,00,32,12.80
2019,03,19,00,33,12.80
2019,03,19,00,34,12.80
2019,03,19,00,35,12.80
2019,03,19,00,36,12.80
2019,03,19,00,37,12.80
2019,03,19,00,38,12.80
2019,03,19,00,39,12.80
2019,03,19,00,40,12.70
2019,03,19,00,41,12.60
2019,03,19,00,42,12.60
2019,03,19,00,43,12.50
2019,03,19,00,44,12.50
2019,03,19,00,45,12.40
2019,03,19,00,46,12.40
2019,03,19,00,47,12.30
2019,03,19,00,48,12.30
2019,03,19,00,49,12.30
2019,03,19,00,50,12.20
2019,03,19,00,51,12.20
2019,03,19,00,52,12.20
2019,03,19,00,53,12.10
2019,03,19,00,54,12.10
2019,03,19,00,55,12.00
2019,03,19,00,56,12.00
2019,03,19,00,57,11.90
2019,03,19,00,58,11.90
2019,03,19,00,59,11.90
2019,03,19,01,00,11.90
2019,03,19,01,01,11.90
2019,03,19,01,02,11.80
2019,03,19,01,03,11.80
2019,03,19,01,04,11.80
2019,03,19,01,05,11.80
2019,03,19,01,06,11.80
2019,03,19,01,07,11.80
2019,03,19,01,08,11.80
2019,03,19,01,09,11.80
2019,03,19,01,10,11.80
2019,03,19,01,11,11.80
2019,03,19,01,12,11.80
2019,03,19,01,13,11.70
2019,03,19,01,14,11.70
2019,03,19,01,15,11.70
2019,03,19,01,16,11.70
2019,03,19,01,17,11.70
2019,03,19,01,18,11.70
2019,03,19,01,19,11.70
2019,03,19,01,20,11.60
2019,03,19,01,21,11.60
2019,03,19,01,22,11.60
2019,03,19,01,23,11.60
2019,03,19,01,24,11.70
2019,03,19,01,25,11.70
2019,03,19,01,26,11.70
2019,03,19,01,27,11.80
2019,03,19,01,28,11.90
2019,03,19,01,29,12.00
2019,03,19,01,30,12.10
2019,03,19,01,31,12.10
2019,03,19,01,32,12.10
2019,03,19,01,33,12.20
2019,03,19,01,34,12.20
2019,03,19,01,35,12.20
2019,03,19,01,36,12.30
2019,03,19,01,37,12.30
2019,03,19,01,38,12.30
2019,03,19,01,39,12.30
2019,03,19,01,40,12.30
2019,03,19,01,41,12.20
2019,03,19,01,42,12.20
2019,03,19,01,43,12.20
2019,03,19,01,44,12.20
2019,03,19,01,45,12.10
2019,03,19,01,46,12.10
2019,03,19,01,47,12.20
2019,03,19,01,48,12.20
2019,03,19,01,49,12.20
2019,03,19,01,50,12.20
2019,03,19,01,51,12.30
2019,03,19,01,52,12.30
2019,03,19,01,53,12.30
2019,03,19,01,54,12.30
2019,03,19,01,55,12.30
2019,03,19,01,56,12.30
2019,03,19,01,57,12.30
2019,03,19,01,58,12.30
2019,03,19,01,59,12.30
2019,03,19,02,00,12.30
2019,03,19,02,01,12.30
2019,03,19,02,02,12.40
2019,03,19,02,03,12.40
2019,03,19,02,04,12.40
2019,03,19,02,05,12.50
2019,03,19,02,06,12.50
2019,03,19,02,07,12.60
2019,03,19,02,08,12.60
2019,03,19,02,09,12.60
2019,03,19,02,10,12.60
2019,03,19,02,11,12.60
2019,03,19,02,12,12.70
2019,03,19,02,13,12.70
2019,03,19,02,14,12.70
2019,03,19,02,15,12.80
2019,03,19,02,16,12.80
2019,03,19,02,17,12.80
2019,03,19,02,18,12.80
2019,03,19,02,19,12.70
2019,03,19,02,20,12.70
2019,03,19,02,21,12.70
2019,03,19,02,22,12.60
2019,03,19,02,23,12.60
2019,03,19,02,24,12.50
2019,03,19,02,25,12.40
2019,03,19,02,26,12.40
2019,03,19,02,27,12.30
2019,03,19,02,28,12.30
2019,03,19,02,29,12.30
2019,03,19,02,30,12.20
2019,03,19,02,31,12.30
2019,03,19,02,32,12.30
2019,03,19,02,33,12.30
2019,03,19,02,34,12.30
2019,03,19,02,35,12.30
2019,03,19,02,36,12.30
2019,03,19,02,37,12.30
2019,03,19,02,38,12.30
2019,03,19,02,39,12.30
2019,03,19,02,40,12.30
2019,03,19,02,41,12.30
2019,03,19,02,42,12.30
2019,03,19,02,43,12.20
2019,03,19,02,44,12.20
2019,03,19,02,45,12.30
2019,03,19,02,46,12.30
2019,03,19,02,47,12.30
2019,03,19,02,48,12.30
2019,03,19,02,49,12.30
2019,03,19,02,50,12.30
2019,03,19,02,51,12.30
2019,03,19,02,52,12.30
2019,03,19,02,53,12.20
2019,03,19,02,54,12.20
2019,03,19,02,55,12.20
2019,03,19,02,56,12.10
2019,03,19,02,57,12.10
2019,03,19,02,58,12.00
2019,03,19,02,59,11.90
2019,03,19,03,00,11.90
2019,03,19,03,01,11.80
2019,03,19,03,02,11.80
2019,03,19,03,03,11.70
2019,03,19,03,04,11.60
2019,03,19,03,05,11.60
2019,03,19,03,06,11.50
2019,03,19,03,07,11.50
2019,03,19,03,08,11.40
2019,03,19,03,09,11.40
2019,03,19,03,10,11.40
2019,03,19,03,11,11.30
2019,03,19,03,12,11.30
2019,03,19,03,13,11.30
2019,03,19,03,14,11.30
2019,03,19,03,15,11.30
2019,03,19,03,16,11.20
2019,03,19,03,17,11.20
2019,03,19,03,18,11.20
2019,03,19,03,19,11.20
2019,03,19,03,20,11.20
2019,03,19,03,21,11.20
2019,03,19,03,22,11.20
2019,03,19,03,23,11.20
2019,03,19,03,24,11.10
2019,03,19,03,25,11.10
2019,03,19,03,26,11.00
2019,03,19,03,27,11.00
2019,03,19,03,28,11.00
2019,03,19,03,29,10.90
2019,03,19,03,30,10.90
2019,03,19,03,31,10.90
2019,03,19,03,32,11.00
2019,03,19,03,33,11.00
2019,03,19,03,34,11.10
2019,03,19,03,35,11.10
2019,03,19,03,36,11.10
2019,03,19,03,37,11.10
2019,03,19,03,38,11.10
2019,03,19,03,39,11.10
2019,03,19,03,40,11.10
2019,03,19,03,41,11.10
2019,03,19,03,42,11.10
2019,03,19,03,43,11.10
2019,03,19,03,44,11.10
2019,03,19,03,45,11.20
2019,03,19,03,46,11.20
2019,03,19,03,47,11.10
2019,03,19,03,48,11.10
2019,03,19,03,49,11.10
2019,03,19,03,50,11.10
2019,03,19,03,51,11.00
2019,03,19,03,52,11.00
2019,03,19,03,53,11.00
2019,03,19,03,54,11.00
2019,03,19,03,55,11.00
2019,03,19,03,56,10.90
2019,03,19,03,57,10.90
2019,03,19,03,58,11.00
2019,03,19,03,59,11.00
2019,03,19,04,00,11.00
2019,03,19,04,01,11.10
2019,03,19,04,02,11.10
2019,03,19,04,03,11.10
2019,03,19,04,04,11.20
2019,03,19,04,05,11.20
2019,03,19,04,06,11.20
2019,03,19,04,07,11.20
2019,03,19,04,08,11.20
2019,03,19,04,09,11.10
2019,03,19,04,10,11.10
2019,03,19,04,11,11.00
2019,03,19,04,12,11.00
2019,03,19,04,13,10.90
2019,03,19,04,14,10.80
2019,03,19,04,15,10.80
2019,03,19,04,16,10.80
2019,03,19,04,17,10.80
2019,03,19,04,18,10.80
2019,03,19,04,19,10.80
2019,03,19,04,20,10.70
2019,03,19,04,21,10.70
2019,03,19,04,22,10.70
2019,03,19,04,23,10.60
2019,03,19,04,24,10.50
2019,03,19,04,25,10.50
2019,03,19,04,26,10.40
2019,03,19,04,27,10.40
2019,03,19,04,28,10.30
2019,03,19,04,29,10.30
2019,03,19,04,30,10.20
2019,03,19,04,31,10.20
2019,03,19,04,32,10.20
2019,03,19,04,33,10.10
2019,03,19,04,34,10.10
2019,03,19,04,35,10.10
2019,03,19,04,36,10.10
2019,03,19,04,37,10.10
2019,03,19,04,38,10.10
2019,03,19,04,39,10.00
2019,03,19,04,40,10.00
2019,03,19,04,41,10.00
2019,03,19,04,42,10.00
2019,03,19,04,43,10.00
2019,03,19,04,44,9.90
2019,03,19,04,45,9.90
2019,03,19,04,46,10.00
2019,03,19,04,47,10.00
2019,03,19,04,48,10.00
2019,03,19,04,49,10.10
2019,03,19,04,50,10.10
2019,03,19,04,51,10.10
2019,03,19,04,52,10.20
2019,03,19,04,53,10.20
2019,03,19,04,54,10.20
2019,03,19,04,55,10.20
2019,03,19,04,56,10.20
2019,03,19,04,57,10.30
2019,03,19,04,58,10.30
2019,03,19,04,59,10.30
2019,03,19,05,00,10.30
2019,03,19,05,01,10.30
2019,03,19,05,02,10.30
2019,03,19,05,03,10.30
2019,03,19,05,04,10.30
2019,03,19,05,05,10.30
2019,03,19,05,06,10.30
2019,03,19,05,07,10.40
2019,03,19,05,08,10.40
2019,03,19,05,09,10.40
2019,03,19,05,10,10.40
2019,03,19,05,11,10.40
2019,03,19,05,12,10.40
2019,03,19,05,13,10.40
2019,03,19,05,14,10.40
2019,03,19,05,15,10.50
2019,03,19,05,16,10.50
2019,03,19,05,17,10.50
2019,03,19,05,18,10.50
2019,03,19,05,19,10.50
2019,03,19,05,20,10.50
2019,03,19,05,21,10.50
2019,03,19,05,22,10.50
2019,03,19,05,23,10.50
2019,03,19,05,24,10.50
2019,03,19,05,25,10.40
2019,03,19,05,26,10.40
2019,03,19,05,27,10.40
2019,03,19,05,28,10.40
2019,03,19,05,29,10.40
2019,03,19,05,30,10.40
2019,03,19,05,31,10.40
2019,03,19,05,32,10.40
2019,03,19,05,33,10.40
2019,03,19,05,34,10.30
2019,03,19,05,35,10.30
2019,03,19,05,36,10.30
2019,03,19,05,37,10.30
2019,03,19,05,38,10.40
2019,03,19,05,39,10.40
2019,03,19,05,40,10.40
2019,03,19,05,41,10.40
2019,03,19,05,42,10.40
2019,03,19,05,43,10.40
2019,03,19,05,44,10.40
2019,03,19,05,45,10.40
2019,03,19,05,46,10.40
2019,03,19,05,47,10.40
2019,03,19,05,48,10.40
2019,03,19,05,49,10.40
2019,03,19,05,50,10.40
2019,03,19,05,51,10.40
2019,03,19,05,52,10.40
2019,03,19,05,53,10.30
2019,03,19,05,54,10.30
2019,03,19,05,55,10.30
2019,03,19,05,56,10.30
2019,03,19,05,57,10.20
2019,03,19,05,58,10.20
2019,03,19,05,59,10.10
2019,03,19,06,00,10.10
2019,03,19,06,01,10.00
2019,03,19,06,02,9.90
2019,03,19,06,03,9.90
2019,03,19,06,04,9.80
2019,03,19,06,05,9.80
2019,03,19,06,06,9.80
2019,03,19,06,07,9.70
2019,03,19,06,08,9.70
2019,03,19,06,09,9.70
2019,03,19,06,10,9.70
2019,03,19,06,11,9.60
2019,03,19,06,12,9.60
2019,03,19,06,13,9.60
2019,03,19,06,14,9.70
2019,03,19,06,15,9.70
2019,03,19,06,16,9.70
2019,03,19,06,17,9.70
2019,03,19,06,18,9.70
2019,03,19,06,19,9.70
2019,03,19,06,20,9.70
2019,03,19,06,21,9.70
2019,03,19,06,22,9.70
2019,03,19,06,23,9.60
2019,03,19,06,24,9.60
2019,03,19,06,25,9.60
2019,03,19,06,26,9.60
2019,03,19,06,27,9.60
2019,03,19,06,28,9.60
2019,03,19,06,29,9.60
2019,03,19,06,30,9.60
2019,03,19,06,31,9.60
2019,03,19,06,32,9.60
2019,03,19,06,33,9.60
2019,03,19,06,34,9.60
2019,03,19,06,35,9.60
2019,03,19,06,36,9.60
2019,03,19,06,37,9.60
2019,03,19,06,38,9.50
2019,03,19,06,39,9.50
2019,03,19,06,40,9.40
2019,03,19,06,41,9.40
2019,03,19,06,42,9.40
2019,03,19,06,43,9.40
2019,03,19,06,44,9.40
2019,03,19,06,45,9.30
2019,03,19,06,46,9.30
2019,03,19,06,47,9.30
2019,03,19,06,48,9.30
2019,03,19,06,49,9.30
2019,03,19,06,50,9.30
2019,03,19,06,51,9.20
2019,03,19,06,52,9.20
2019,03,19,06,53,9.20
2019,03,19,06,54,9.20
2019,03,19,06,55,9.10
2019,03,19,06,56,9.10
2019,03,19,06,57,9.10
2019,03,19,06,58,9.10
2019,03,19,06,59,9.00
2019,03,19,07,00,9.00
2019,03,19,07,01,9.00
2019,03,19,07,02,9.00
2019,03,19,07,03,9.00
2019,03,19,07,04,8.90
2019,03,19,07,05,8.90
2019,03,19,07,06,8.90
2019,03,19,07,07,8.80
2019,03,19,07,08,8.80
2019,03,19,07,09,8.70
2019,03,19,07,10,8.70
2019,03,19,07,11,8.60
2019,03,19,07,12,8.60
2019,03,19,07,13,8.50
2019,03,19,07,14,8.40
2019,03,19,07,15,8.40
2019,03,19,07,16,8.40
2019,03,19,07,17,8.30
2019,03,19,07,18,8.30
2019,03,19,07,19,8.30
2019,03,19,07,20,8.30
2019,03,19,07,21,8.30
2019,03,19,07,22,8.30
2019,03,19,07,23,8.30
2019,03,19,07,24,8.30
2019,03,19,07,25,8.30
2019,03,19,07,26,8.30
2019,03,19,07,27,8.30
2019,03,19,07,28,8.30
2019,03,19,07,29,8.40
2019,03,19,07,30,8.40
2019,03,19,07,31,8.40
2019,03,19,07,32,8.30
2019,03,19,07,33,8.30
2019,03,19,07,34,8.30
2019,03,19,07,35,8.30
2019,03,19,07,36,8.30
2019,03,19,07,37,8.30
2019,03,19,07,38,8.30
2019,03,19,07,39,8.30
2019,03,19,07,40,8.30
2019,03,19,07,41,8.40
2019,03,19,07,42,8.40
2019,03,19,07,43,8.40
2019,03,19,07,44,8.40
2019,03,19,07,45,8.40
2019,03,19,07,46,8.40
2019,03,19,07,47,8.40
2019,03,19,07,48,8.40
2019,03,19,07,49,8.50
2019,03,19,07,50,8.50
2019,03,19,07,51,8.50
2019,03,19,07,52,8.50
2019,03,19,07,53,8.50
2019,03,19,07,54,8.60
2019,03,19,07,55,8.60
2019,03,19,07,56,8.60
2019,03,19,07,57,8.60
2019,03,19,07,58,8.60
2019,03,19,07,59,8.70
2019,03,19,08,00,8.70
2019,03,19,08,01,8.70
2019,03,19,08,02,8.70
2019,03,19,08,03,8.80
2019,03,19,08,04,8.80
2019,03,19,08,05,8.80
2019,03,19,08,06,8.80
2019,03,19,08,07,8.80
2019,03,19,08,08,8.80
2019,03,19,08,09,8.80
2019,03,19,08,10,8.90
2019,03,19,08,11,8.90
2019,03,19,08,12,8.90
2019,03,19,08,13,9.00
2019,03,19,08,14,9.00
2019,03,19,08,15,9.00
2019,03,19,08,16,9.10
2019,03,19,08,17,9.10
2019,03,19,08,18,9.10
2019,03,19,08,19,9.10
2019,03,19,08,20,9.10
2019,03,19,08,21,9.20
2019,03,19,08,22,9.20
2019,03,19,08,23,9.20
2019,03,19,08,24,9.20
2019,03,19,08,25,9.30
2019,03,19,08,26,9.30
2019,03,19,08,27,9.30
2019,03,19,08,28,9.40
2019,03,19,08,29,9.40
2019,03,19,08,30,9.50
2019,03,19,08,31,9.50
2019,03,19,08,32,9.50
2019,03,19,08,33,9.60
2019,03,19,08,34,9.70
2019,03,19,08,35,9.70
2019,03,19,08,36,9.80
2019,03,19,08,37,9.80
2019,03,19,08,38,9.90
2019,03,19,08,39,10.00
2019,03,19,08,40,10.00
2019,03,19,08,41,10.10
2019,03,19,08,42,10.10
2019,03,19,08,43,10.10
2019,03,19,08,44,10.20
2019,03,19,08,45,10.20
2019,03,19,08,46,10.20
2019,03,19,08,47,10.20
2019,03,19,08,48,10.30
2019,03,19,08,49,10.30
2019,03,19,08,50,10.30
2019,03,19,08,51,10.30
2019,03,19,08,52,10.40
2019,03,19,08,53,10.40
2019,03,19,08,54,10.40
2019,03,19,08,55,10.40
2019,03,19,08,56,10.40
2019,03,19,08,57,10.40
2019,03,19,08,58,10.50
2019,03,19,08,59,10.50
2019,03,19,09,00,10.50
2019,03,19,09,01,10.60
2019,03,19,09,02,10.60
2019,03,19,09,03,10.60
2019,03,19,09,04,10.60
2019,03,19,09,05,10.60
2019,03,19,09,06,10.60
2019,03,19,09,07,10.60
2019,03,19,09,08,10.60
2019,03,19,09,09,10.60
2019,03,19,09,10,10.70
2019,03,19,09,11,10.70
2019,03,19,09,12,10.70
2019,03,19,09,13,10.80
2019,03,19,09,14,10.80
2019,03,19,09,15,10.80
2019,03,19,09,16,10.80
2019,03,19,09,17,10.90
2019,03,19,09,18,10.90
2019,03,19,09,19,10.90
2019,03,19,09,20,11.00
2019,03,19,09,21,11.10
2019,03,19,09,22,11.10
2019,03,19,09,23,11.20
2019,03,19,09,24,11.20
2019,03,19,09,25,11.20
2019,03,19,09,26,11.30
2019,03,19,09,27,11.30
2019,03,19,09,28,11.30
2019,03,19,09,29,11.30
2019,03,19,09,30,11.30
2019,03,19,09,31,11.30
2019,03,19,09,32,11.40
2019,03,19,09,33,11.40
2019,03,19,09,34,11.50
2019,03,19,09,35,11.50
2019,03,19,09,36,11.60
2019,03,19,09,37,11.60
2019,03,19,09,38,11.60
2019,03,19,09,39,11.50
2019,03,19,09,40,11.50
2019,03,19,09,41,11.50
2019,03,19,09,42,11.40
2019,03,19,09,43,11.40
2019,03,19,09,44,11.40
2019,03,19,09,45,11.40
2019,03,19,09,46,11.40
2019,03,19,09,47,11.40
2019,03,19,09,48,11.40
2019,03,19,09,49,11.40
2019,03,19,09,50,11.40
2019,03,19,09,51,11.40
2019,03,19,09,52,11.50
2019,03,19,09,53,11.50
2019,03,19,09,54,11.50
2019,03,19,09,55,11.50
2019,03,19,09,56,11.50
2019,03,19,09,57,11.60
2019,03,19,09,58,11.60
2019,03,19,09,59,11.60
2019,03,19,10,00,11.70
2019,03,19,10,01,11.70
2019,03,19,10,02,11.70
2019,03,19,10,03,11.70
2019,03,19,10,04,11.80
2019,03,19,10,05,11.80
2019,03,19,10,06,11.80
2019,03,19,10,07,11.80
2019,03,19,10,08,11.90
2019,03,19,10,09,11.90
2019,03,19,10,10,11.90
2019,03,19,10,11,11.90
2019,03,19,10,12,11.90
2019,03,19,10,13,12.00
2019,03,19,10,14,12.00
2019,03,19,10,15,12.10
2019,03,19,10,16,12.10
2019,03,19,10,17,12.20
2019,03,19,10,18,12.20
2019,03,19,10,19,12.20
2019,03,19,10,20,12.20
2019,03,19,10,21,12.20
2019,03,19,10,22,12.20
2019,03,19,10,23,12.20
2019,03,19,10,24,12.30
2019,03,19,10,25,12.30
2019,03,19,10,26,12.30
2019,03,19,10,27,12.30
2019,03,19,10,28,12.30
2019,03,19,10,29,12.30
2019,03,19,10,30,12.40
2019,03,19,10,31,12.40
2019,03,19,10,32,12.40
2019,03,19,10,33,12.40
2019,03,19,10,34,12.40
2019,03,19,10,35,12.40
2019,03,19,10,36,12.40
2019,03,19,10,37,12.40
2019,03,19,10,38,12.40
2019,03,19,10,39,12.40
2019,03,19,10,40,12.40
2019,03,19,10,41,12.40
2019,03,19,10,42,12.40
2019,03,19,10,43,12.40
2019,03,19,10,44,12.40
2019,03,19,10,45,12.40
2019,03,19,10,46,12.40
2019,03,19,10,47,12.40
2019,03,19,10,48,12.50
2019,03,19,10,49,12.50
2019,03,19,10,50,12.50
2019,03,19,10,51,12.60
2019,03,19,10,52,12.70
2019,03,19,10,53,12.70
2019,03,19,10,54,12.80
2019,03,19,10,55,12.90
2019,03,19,10,56,13.00
2019,03,19,10,57,13.00
2019,03,19,10,58,13.10
2019,03,19,10,59,13.20
2019,03,19,11,00,13.20
2019,03,19,11,01,13.30
2019,03,19,11,02,13.40
2019,03,19,11,03,13.40
2019,03,19,11,04,13.50
2019,03,19,11,05,13.60
2019,03,19,11,06,13.70
2019,03,19,11,07,13.70
2019,03,19,11,08,13.80
2019,03,19,11,09,13.80
2019,03,19,11,10,13.80
2019,03,19,11,11,13.80
2019,03,19,11,12,13.90
2019,03,19,11,13,14.00
2019,03,19,11,14,14.00
2019,03,19,11,15,14.10
2019,03,19,11,16,14.10
2019,03,19,11,17,14.20
2019,03,19,11,18,14.10
2019,03,19,11,19,14.00
2019,03,19,11,20,14.00
2019,03,19,11,21,13.90
2019,03,19,11,22,13.90
2019,03,19,11,23,13.90
2019,03,19,11,24,13.90
2019,03,19,11,25,14.00
2019,03,19,11,26,14.00
2019,03,19,11,27,14.10
2019,03,19,11,28,14.20
2019,03,19,11,29,14.20
2019,03,19,11,30,14.30
2019,03,19,11,31,14.30
2019,03,19,11,32,14.30
2019,03,19,11,33,14.20
2019,03,19,11,34,14.10
2019,03,19,11,35,14.10
2019,03,19,11,36,14.10
2019,03,19,11,37,14.10
2019,03,19,11,38,14.10
2019,03,19,11,39,14.10
2019,03,19,11,40,14.10
2019,03,19,11,41,14.10
2019,03,19,11,42,14.20
2019,03,19,11,43,14.30
2019,03,19,11,44,14.30
2019,03,19,11,45,14.40
2019,03,19,11,46,14.40
2019,03,19,11,47,14.50
2019,03,19,11,48,14.50
2019,03,19,11,49,14.60
2019,03,19,11,50,14.60
2019,03,19,11,51,14.70
2019,03,19,11,52,14.70
2019,03,19,11,53,14.70
2019,03,19,11,54,14.70
2019,03,19,11,55,14.70
2019,03,19,11,56,14.70
2019,03,19,11,57,14.70
2019,03,19,11,58,14.70
2019,03,19,11,59,14.70
2019,03,19,12,00,14.60
2019,03,19,12,01,14.60
2019,03,19,12,02,14.70
2019,03,19,12,03,14.80
2019,03,19,12,04,14.80
2019,03,19,12,05,14.90
2019,03,19,12,06,15.10
2019,03,19,12,07,15.10
2019,03,19,12,08,15.20
2019,03,19,12,09,15.20
2019,03,19,12,10,15.10
2019,03,19,12,11,15.20
2019,03,19,12,12,15.20
2019,03,19,12,13,15.30
2019,03,19,12,14,15.30
2019,03,19,12,15,15.30
2019,03,19,12,16,15.30
2019,03,19,12,17,15.30
2019,03,19,12,18,15.40
2019,03,19,12,19,15.40
2019,03,19,12,20,15.40
2019,03,19,12,21,15.40
2019,03,19,12,22,15.30
2019,03,19,12,23,15.20
2019,03,19,12,24,15.20
2019,03,19,12,25,15.10
2019,03,19,12,26,15.00
2019,03,19,12,27,15.00
2019,03,19,12,28,15.00
2019,03,19,12,29,15.10
2019,03,19,12,30,15.10
2019,03,19,12,31,15.10
2019,03,19,12,32,15.10
2019,03,19,12,33,15.10
2019,03,19,12,34,15.20
2019,03,19,12,35,15.20
2019,03,19,12,36,15.30
2019,03,19,12,37,15.30
2019,03,19,12,38,15.30
2019,03,19,12,39,15.40
2019,03,19,12,40,15.40
2019,03,19,12,41,15.50
2019,03,19,12,42,15.60
2019,03,19,12,43,15.70
2019,03,19,12,44,15.70
2019,03,19,12,45,15.70
2019,03,19,12,46,15.70
2019,03,19,12,47,15.70
2019,03,19,12,48,15.80
2019,03,19,12,49,15.80
2019,03,19,12,50,15.90
2019,03,19,12,51,15.90
2019,03,19,12,52,15.90
2019,03,19,12,53,15.80
2019,03,19,12,54,15.80
2019,03,19,12,55,15.70
2019,03,19,12,56,15.60
2019,03,19,12,57,15.50
2019,03,19,12,58,15.50
2019,03,19,12,59,15.50
2019,03,19,13,00,15.50
2019,03,19,13,01,15.40
2019,03,19,13,02,15.30
2019,03,19,13,03,15.30
2019,03,19,13,04,15.30
2019,03,19,13,05,15.30
2019,03,19,13,06,15.30
2019,03,19,13,07,15.30
2019,03,19,13,08,15.20
2019,03,19,13,09,15.20
2019,03,19,13,10,15.20
2019,03,19,13,11,15.20
2019,03,19,13,12,15.20
2019,03,19,13,13,15.20
2019,03,19,13,14,15.30
2019,03,19,13,15,15.40
2019,03,19,13,16,15.40
2019,03,19,13,17,15.40
2019,03,19,13,18,15.50
2019,03,19,13,19,15.60
2019,03,19,13,20,15.60
2019,03,19,13,21,15.70
2019,03,19,13,22,15.80
2019,03,19,13,23,15.80
2019,03,19,13,24,15.90
2019,03,19,13,25,15.90
2019,03,19,13,26,16.00
2019,03,19,13,27,16.00
2019,03,19,13,28,16.00
2019,03,19,13,29,16.00
2019,03,19,13,30,16.00
2019,03,19,13,31,16.10
2019,03,19,13,32,16.10
2019,03,19,13,33,16.20
2019,03,19,13,34,16.20
2019,03,19,13,35,16.20
2019,03,19,13,36,16.20
2019,03,19,13,37,16.10
2019,03,19,13,38,16.00
2019,03,19,13,39,16.00
2019,03,19,13,40,16.00
2019,03,19,13,41,16.10
2019,03,19,13,42,16.20
2019,03,19,13,43,16.20
2019,03,19,13,44,16.30
2019,03,19,13,45,16.30
2019,03,19,13,46,16.30
2019,03,19,13,47,16.30
2019,03,19,13,48,16.30
2019,03,19,13,49,16.20
2019,03,19,13,50,16.10
2019,03,19,13,51,16.10
2019,03,19,13,52,16.10
2019,03,19,13,53,16.20
2019,03,19,13,54,16.20
2019,03,19,13,55,16.20
2019,03,19,13,56,16.10
2019,03,19,13,57,16.10
2019,03,19,13,58,16.10
2019,03,19,13,59,16.10
2019,03,19,14,00,16.20
2019,03,19,14,01,16.20
2019,03,19,14,02,16.20
2019,03,19,14,03,16.30
2019,03,19,14,04,16.30
2019,03,19,14,05,16.40
2019,03,19,14,06,16.50
2019,03,19,14,07,16.60
2019,03,19,14,08,16.60
2019,03,19,14,09,16.60
2019,03,19,14,10,16.60
2019,03,19,14,11,16.70
2019,03,19,14,12,16.70
2019,03,19,14,13,16.80
2019,03,19,14,14,16.70
2019,03,19,14,15,16.70
2019,03,19,14,16,16.70
2019,03,19,14,17,16.70
2019,03,19,14,18,16.80
2019,03,19,14,19,16.80
2019,03,19,14,20,16.80
2019,03,19,14,21,16.80
2019,03,19,14,22,16.80
2019,03,19,14,23,16.90
2019,03,19,14,24,16.90
2019,03,19,14,25,16.90
2019,03,19,14,26,16.90
2019,03,19,14,27,16.90
2019,03,19,14,28,16.90
2019,03,19,14,29,16.90
2019,03,19,14,30,17.00
2019,03,19,14,31,17.10
2019,03,19,14,32,17.10
2019,03,19,14,33,17.20
2019,03,19,14,34,17.30
2019,03,19,14,35,17.30
2019,03,19,14,36,17.40
2019,03,19,14,37,17.50
2019,03,19,14,38,17.60
2019,03,19,14,39,17.70
2019,03,19,14,40,17.80
2019,03,19,14,41,17.90
2019,03,19,14,42,17.90
2019,03,19,14,43,17.90
2019,03,19,14,44,17.90
2019,03,19,14,45,17.90
2019,03,19,14,46,17.90
2019,03,19,14,47,17.90
2019,03,19,14,48,17.90
2019,03,19,14,49,18.00
2019,03,19,14,50,18.10
2019,03,19,14,51,18.10
2019,03,19,14,52,18.10
2019,03,19,14,53,18.10
2019,03,19,14,54,18.10
2019,03,19,14,55,18.20
2019,03,19,14,56,18.20
2019,03,19,14,57,18.20
2019,03,19,14,58,18.20
2019,03,19,14,59,18.20
2019,03,19,15,00,18.20
2019,03,19,15,01,18.20
2019,03,19,15,02,18.20
2019,03,19,15,03,18.20
2019,03,19,15,04,18.20
2019,03,19,15,05,18.30
2019,03,19,15,06,18.30
2019,03,19,15,07,18.30
2019,03,19,15,08,18.40
2019,03,19,15,09,18.40
2019,03,19,15,10,18.30
2019,03,19,15,11,18.30
2019,03,19,15,12,18.20
2019,03,19,15,13,18.20
2019,03,19,15,14,18.30
2019,03,19,15,15,18.40
2019,03,19,15,16,18.50
2019,03,19,15,17,18.60
2019,03,19,15,18,18.70
2019,03,19,15,19,18.80
2019,03,19,15,20,18.80
2019,03,19,15,21,18.80
2019,03,19,15,22,18.80
2019,03,19,15,23,18.80
2019,03,19,15,24,18.90
2019,03,19,15,25,18.90
2019,03,19,15,26,18.90
2019,03,19,15,27,18.90
2019,03,19,15,28,18.90
2019,03,19,15,29,18.90
2019,03,19,15,30,18.90
2019,03,19,15,31,19.00
2019,03,19,15,32,19.00
2019,03,19,15,33,19.10
2019,03,19,15,34,19.10
2019,03,19,15,35,19.00
2019,03,19,15,36,18.90
2019,03,19,15,37,18.90
2019,03,19,15,38,18.80
2019,03,19,15,39,18.80
2019,03,19,15,40,18.90
2019,03,19,15,41,18.90
2019,03,19,15,42,18.90
2019,03,19,15,43,18.90
2019,03,19,15,44,18.90
2019,03,19,15,45,19.00
2019,03,19,15,46,18.90
2019,03,19,15,47,18.90
2019,03,19,15,48,18.80
2019,03,19,15,49,18.80
2019,03,19,15,50,18.80
2019,03,19,15,51,18.70
2019,03,19,15,52,18.70
2019,03,19,15,53,18.60
2019,03,19,15,54,18.60
2019,03,19,15,55,18.60
2019,03,19,15,56,18.60
2019,03,19,15,57,18.70
2019,03,19,15,58,18.70
2019,03,19,15,59,18.70
2019,03,19,16,00,18.80
2019,03,19,16,01,18.80
2019,03,19,16,02,18.70
2019,03,19,16,03,18.70
2019,03,19,16,04,18.80
2019,03,19,16,05,18.80
2019,03,19,16,06,18.90
2019,03,19,16,07,19.00
2019,03,19,16,08,19.10
2019,03,19,16,09,19.10
2019,03,19,16,10,19.10
2019,03,19,16,11,19.10
2019,03,19,16,12,19.10
2019,03,19,16,13,19.10
2019,03,19,16,14,19.00
2019,03,19,16,15,18.90
2019,03,19,16,16,19.00
2019,03,19,16,17,19.00
2019,03,19,16,18,19.10
2019,03,19,16,19,19.20
2019,03,19,16,20,19.20
2019,03,19,16,21,19.20
2019,03,19,16,22,19.10
2019,03,19,16,23,19.10
2019,03,19,16,24,19.10
2019,03,19,16,25,19.10
2019,03,19,16,26,19.00
2019,03,19,16,27,19.00
2019,03,19,16,28,19.00
2019,03,19,16,29,19.00
2019,03,19,16,30,19.00
2019,03,19,16,31,19.00
2019,03,19,16,32,19.00
2019,03,19,16,33,19.00
2019,03,19,16,34,18.90
2019,03,19,16,35,18.90
2019,03,19,16,36,18.80
2019,03,19,16,37,18.80
2019,03,19,16,38,18.80
2019,03,19,16,39,18.80
2019,03,19,16,40,18.80
2019,03,19,16,41,18.70
2019,03,19,16,42,18.70
2019,03,19,16,43,18.70
2019,03,19,16,44,18.70
2019,03,19,16,45,18.80
2019,03,19,16,46,18.80
2019,03,19,16,47,18.90
2019,03,19,16,48,18.90
2019,03,19,16,49,18.90
2019,03,19,16,50,18.90
2019,03,19,16,51,18.90
2019,03,19,16,52,19.00
2019,03,19,16,53,19.00
2019,03,19,16,54,19.00
2019,03,19,16,55,18.90
2019,03,19,16,56,18.80
2019,03,19,16,57,18.80
2019,03,19,16,58,18.80
2019,03,19,16,59,18.80
2019,03,19,17,00,18.70
2019,03,19,17,01,18.70
2019,03,19,17,02,18.70
2019,03,19,17,03,18.70
2019,03,19,17,04,18.70
2019,03,19,17,05,18.70
2019,03,19,17,06,18.70
2019,03,19,17,07,18.70
2019,03,19,17,08,18.70
2019,03,19,17,09,18.70
2019,03,19,17,10,18.60
2019,03,19,17,11,18.60
2019,03,19,17,12,18.60
2019,03,19,17,13,18.60
2019,03,19,17,14,18.60
2019,03,19,17,15,18.60
2019,03,19,17,16,18.60
2019,03,19,17,17,18.60
2019,03,19,17,18,18.60
2019,03,19,17,19,18.50
2019,03,19,17,20,18.50
2019,03,19,17,21,18.50
2019,03,19,17,22,18.40
2019,03,19,17,23,18.50
2019,03,19,17,24,18.50
2019,03,19,17,25,18.40
2019,03,19,17,26,18.40